Aiken, SC

7:15 AM EDT on April 26, 2017 (GMT -0400)
Aiken Municipal

Weather History for KAIK - March, 2014

Change the Weather History Date:

Sunday, March 23, 2014

  Actual Average Record
Temperature  
Mean Temperature 58 °F -  
Max Temperature 69 °F 70 °F 82 °F (2012)
Min Temperature 46 °F 41 °F 41 °F (2013)
Degree Days  
Heating Degree Days 8    
Growing Degree Days 8 (Base 50)    
Moisture  
Dew Point 50 °F    
Average Humidity 79    
Maximum Humidity 100    
Minimum Humidity 56    
Precipitation  
Precipitation 0.00 in - - ()
Sea Level Pressure  
Sea Level Pressure 30.01 in    
Wind  
Wind Speed 3 mph (NNW)    
Max Wind Speed 21 mph    
Max Gust Speed 26 mph    
Visibility 10 miles    
Events Rain    
Averages and records for this station are not official NWS values.
T = Trace of Precipitation, MM = Missing Value Source: NWS Daily Summary

Daily Weather History Graph

Daily Weather History Graph

Search for Another Location

Airport or City:

Trip Planner

Search our weather history database for the weather conditions in past years. The results will help you decide how hot, cold, wet, or windy it might be!

Date:

Astronomy

Mar. 23, 2014 Rise Set
Actual Time 7:26 AM EDT 7:40 PM EDT
Civil Twilight 7:01 AM EDT 8:05 PM EDT
Nautical Twilight 6:32 AM EDT 8:34 PM EDT
Astronomical Twilight 6:03 AM EDT 9:04 PM EDT
Moon 1:42 AM EDT (3/23) 12:20 PM EDT (3/23)
Length of Visible Light 13h 03m
Length of Day
12h 14m
Waning Gibbous, 55% of the Moon is Illuminated
Mar 23
Waning Gibbous
Mar 23
Last Quarter
Mar 30
New
Apr 7
First Quarter
Apr 15
Full

Hourly Weather History & Observations

Time (EDT) Temp. Windchill Dew Point Humidity Pressure Visibility Wind Dir Wind Speed Gust Speed Precip Events Conditions
12:15 AM 53.6 °F - 48.2 °F 82% 30.04 in 10.0 mi Calm Calm - N/A   Clear
12:35 AM 51.8 °F - 46.4 °F 82% 30.03 in 10.0 mi Calm Calm - N/A   Clear
12:55 AM 50.0 °F - 46.4 °F 87% 30.03 in 10.0 mi Calm Calm - N/A   Clear
1:15 AM 50.0 °F - 46.4 °F 87% 30.03 in 10.0 mi Calm Calm - N/A   Clear
1:35 AM 50.0 °F - 46.4 °F 87% 30.02 in 10.0 mi Calm Calm - N/A   Clear
1:55 AM 51.8 °F - 46.4 °F 82% 30.02 in 10.0 mi Calm Calm - N/A   Clear
2:15 AM 48.2 °F - 46.4 °F 93% 30.02 in 10.0 mi Calm Calm - N/A   Clear
2:35 AM 50.0 °F - 46.4 °F 87% 30.02 in 10.0 mi Calm Calm - N/A   Clear
2:55 AM 48.2 °F - 46.4 °F 93% 30.02 in 10.0 mi Calm Calm - N/A   Clear
3:15 AM 50.0 °F - 46.4 °F 87% 30.01 in 10.0 mi Calm Calm - N/A   Clear
3:35 AM 50.0 °F - 46.4 °F 87% 30.00 in 10.0 mi Calm Calm - N/A   Clear
3:55 AM 50.0 °F - 46.4 °F 87% 29.99 in 10.0 mi Calm Calm - N/A   Clear
4:15 AM 46.4 °F - 46.4 °F 100% 29.99 in 10.0 mi Calm Calm - N/A   Clear
4:35 AM 50.0 °F - 46.4 °F 87% 29.98 in 10.0 mi Calm Calm - N/A   Clear
4:55 AM 50.0 °F - 50.0 °F 100% 29.98 in 10.0 mi Calm Calm - N/A   Clear
5:15 AM 48.2 °F - 48.2 °F 100% 29.98 in 10.0 mi Calm Calm - N/A   Clear
5:35 AM 46.4 °F - 46.4 °F 100% 29.97 in 10.0 mi Calm Calm - N/A   Clear
5:55 AM 48.2 °F - 46.4 °F 93% 29.96 in 10.0 mi Calm Calm - N/A   Clear
6:15 AM 48.2 °F - 46.4 °F 93% 29.97 in 10.0 mi Calm Calm - N/A   Clear
6:35 AM 48.2 °F - 46.4 °F 93% 29.97 in 10.0 mi Calm Calm - N/A   Clear
6:55 AM 50.0 °F - 50.0 °F 100% 29.98 in 10.0 mi Calm Calm - N/A   Clear
7:15 AM 48.2 °F - 46.4 °F 93% 29.99 in 10.0 mi Calm Calm - N/A   Clear
7:35 AM 48.2 °F - 46.4 °F 93% 29.99 in 10.0 mi Calm Calm - N/A   Clear
7:55 AM 48.2 °F - 46.4 °F 93% 29.99 in 10.0 mi Calm Calm - N/A   Clear
8:15 AM 50.0 °F - 50.0 °F 100% 30.00 in 10.0 mi Calm Calm - N/A   Clear
8:35 AM 51.8 °F - 51.8 °F 100% 29.99 in 10.0 mi Calm Calm - N/A   Clear
8:55 AM 55.4 °F - 55.4 °F 100% 30.00 in 7.0 mi Calm Calm - N/A   Clear
9:15 AM 55.4 °F - 55.4 °F 100% 30.00 in 7.0 mi Calm Calm - N/A   Clear
9:35 AM 59.0 °F - 57.2 °F 94% 30.00 in 7.0 mi Calm Calm - N/A   Clear
9:55 AM 59.0 °F - 59.0 °F 100% 30.00 in 7.0 mi Calm Calm - N/A   Clear
10:15 AM 60.8 °F - 55.4 °F 82% 30.00 in 10.0 mi Calm Calm - N/A   Clear
10:35 AM 60.8 °F - 55.4 °F 82% 30.00 in 10.0 mi Calm Calm - N/A   Clear
10:55 AM 62.6 °F - 55.4 °F 77% 30.00 in 10.0 mi WSW 4.6 mph - N/A   Clear
11:15 AM 64.4 °F - 55.4 °F 73% 30.00 in 10.0 mi WSW 4.6 mph - N/A   Clear
11:35 AM 66.2 °F - 53.6 °F 64% 30.00 in 10.0 mi SW 3.5 mph - N/A   Scattered Clouds
11:55 AM 66.2 °F - 55.4 °F 68% 30.00 in 10.0 mi Calm Calm - N/A   Scattered Clouds
12:15 PM 68.0 °F - 53.6 °F 60% 30.01 in 10.0 mi West 10.4 mph - N/A   Mostly Cloudy
12:35 PM 66.2 °F - 51.8 °F 60% 30.03 in 10.0 mi West 17.3 mph 23.0 mph N/A   Light Drizzle
12:55 PM 64.4 °F - 53.6 °F 68% 30.02 in 10.0 mi West 10.4 mph - N/A Rain Light Rain
1:15 PM 64.4 °F - 53.6 °F 68% 30.01 in 10.0 mi WNW 5.8 mph - N/A Rain Light Rain
1:35 PM 64.4 °F - 53.6 °F 68% 30.00 in 10.0 mi NW 5.8 mph - N/A   Overcast
1:55 PM 64.4 °F - 53.6 °F 68% 29.99 in 10.0 mi WNW 6.9 mph - N/A   Overcast
2:15 PM 68.0 °F - 53.6 °F 60% 29.98 in 10.0 mi WNW 8.1 mph - N/A   Overcast
2:35 PM 69.8 °F - 53.6 °F 56% 29.97 in 10.0 mi West 4.6 mph - N/A   Mostly Cloudy
2:55 PM 69.8 °F - 53.6 °F 56% 29.95 in 10.0 mi NW 8.1 mph - N/A   Mostly Cloudy
3:15 PM 69.8 °F - 55.4 °F 60% 29.94 in 10.0 mi WNW 11.5 mph 16.1 mph N/A   Mostly Cloudy
3:35 PM 69.8 °F - 53.6 °F 56% 29.94 in 10.0 mi West 10.4 mph - N/A   Overcast
3:55 PM 69.8 °F - 53.6 °F 56% 29.93 in 10.0 mi WNW 10.4 mph - N/A   Mostly Cloudy
4:15 PM 69.8 °F - 53.6 °F 56% 29.94 in 10.0 mi NW 10.4 mph 16.1 mph N/A   Mostly Cloudy
4:35 PM 68.0 °F - 53.6 °F 60% 29.94 in 10.0 mi NW 4.6 mph - N/A   Mostly Cloudy
4:55 PM 68.0 °F - 53.6 °F 60% 29.94 in 10.0 mi NNW 9.2 mph - N/A   Overcast
5:15 PM 68.0 °F - 53.6 °F 60% 29.94 in 10.0 mi NNW 8.1 mph - N/A   Overcast
5:35 PM 68.0 °F - 53.6 °F 60% 29.95 in 10.0 mi North 10.4 mph 17.3 mph N/A   Overcast
5:55 PM 64.4 °F - 51.8 °F 64% 29.96 in 10.0 mi North 11.5 mph - N/A   Mostly Cloudy
6:15 PM 62.6 °F - 50.0 °F 63% 29.98 in 10.0 mi North 16.1 mph 19.6 mph N/A   Overcast
6:35 PM 59.0 °F - 46.4 °F 63% 29.99 in 10.0 mi North 17.3 mph 23.0 mph N/A   Overcast
6:55 PM 57.2 °F - 46.4 °F 67% 30.00 in 10.0 mi NNE 20.7 mph 26.5 mph N/A   Overcast
7:15 PM 55.4 °F - 46.4 °F 72% 30.01 in 10.0 mi North 17.3 mph 21.9 mph N/A   Overcast
7:35 PM 55.4 °F - 46.4 °F 72% 30.03 in 10.0 mi North 15.0 mph - N/A   Overcast
7:55 PM 55.4 °F - 46.4 °F 72% 30.04 in 10.0 mi NNE 10.4 mph 20.7 mph N/A   Overcast
8:15 PM 53.6 °F - 46.4 °F 77% 30.05 in 10.0 mi NNE 11.5 mph 17.3 mph N/A   Mostly Cloudy
8:35 PM 53.6 °F - 46.4 °F 77% 30.06 in 10.0 mi NNE 10.4 mph 20.7 mph N/A   Overcast
8:55 PM 51.8 °F - 44.6 °F 76% 30.07 in 10.0 mi NNE 12.7 mph - N/A   Mostly Cloudy
9:15 PM 51.8 °F - 46.4 °F 82% 30.08 in 10.0 mi NE 6.9 mph - N/A   Scattered Clouds
9:35 PM 51.8 °F - 44.6 °F 76% 30.10 in 10.0 mi NNE 8.1 mph - N/A   Overcast
9:55 PM 51.8 °F - 44.6 °F 76% 30.11 in 10.0 mi NNE 10.4 mph - N/A   Overcast
10:15 PM 50.0 °F - 44.6 °F 82% 30.11 in 10.0 mi NE 6.9 mph - N/A   Mostly Cloudy
10:35 PM 50.0 °F - 44.6 °F 82% 30.12 in 10.0 mi NE 5.8 mph - N/A   Scattered Clouds
10:55 PM 48.2 °F - 44.6 °F 87% 30.12 in 10.0 mi NNE 6.9 mph - N/A   Clear
11:15 PM 48.2 °F - 44.6 °F 87% 30.13 in 10.0 mi NNE 5.8 mph - N/A   Clear
11:35 PM 46.4 °F 42.4 °F 44.6 °F 93% 30.13 in 10.0 mi NNE 8.1 mph - N/A   Clear
11:55 PM 46.4 °F 42.9 °F 44.6 °F 93% 30.14 in 10.0 mi NNE 6.9 mph - N/A   Clear